SAS407 ESSA-EKCH

Flight info

Callsign SAS407
Flight time 0h 58m
Altitude 34000
Route PETEV N872 ELPAX DCT TOKSI N872 ERNOV
Aircraft A320/M-SDE3FGHIRWY/LB1

Departure

Time 2026-05-07 15:31
Airport Stockholm-Arlanda Airport (ESSA)

Arrival

Time 2026-05-07 16:29
Airport Copenhagen Kastrup Airport (EKCH)
Time Latitude Longitude Altitude Speed Heading
2026-05-07 15:06 59.65385 17.93038 110 ft 0 kts 191°
2026-05-07 15:23 59.65390 17.93040 111 ft 2 kts 191°
2026-05-07 15:23 59.65409 17.93047 110 ft 3 kts 191°
2026-05-07 15:23 59.65423 17.93050 110 ft 3 kts 238°
2026-05-07 15:23 59.65429 17.93083 108 ft 2 kts 255°
2026-05-07 15:24 59.65432 17.93105 109 ft 0 kts 255°
2026-05-07 15:24 59.65432 17.93106 109 ft 0 kts 255°
2026-05-07 15:26 59.65432 17.93104 109 ft 1 kts 255°
2026-05-07 15:26 59.65427 17.93066 108 ft 5 kts 256°
2026-05-07 15:27 59.65427 17.92985 112 ft 7 kts 297°
2026-05-07 15:27 59.65442 17.92955 112 ft 3 kts 316°
2026-05-07 15:27 59.65464 17.92905 112 ft 7 kts 294°
2026-05-07 15:27 59.65451 17.92781 112 ft 11 kts 244°
2026-05-07 15:28 59.65440 17.92635 110 ft 11 kts 299°
2026-05-07 15:28 59.65511 17.92547 105 ft 8 kts 339°
2026-05-07 15:28 59.65553 17.92519 105 ft 8 kts 342°
2026-05-07 15:28 59.65628 17.92480 103 ft 14 kts 346°
2026-05-07 15:29 59.65730 17.92433 105 ft 16 kts 349°
2026-05-07 15:29 59.65844 17.92450 106 ft 17 kts
2026-05-07 15:29 59.65913 17.92358 109 ft 11 kts 285°
2026-05-07 15:29 59.65925 17.92215 114 ft 10 kts 279°
2026-05-07 15:30 59.65912 17.92119 113 ft 7 kts 218°
2026-05-07 15:30 59.65851 17.92090 114 ft 15 kts 190°
2026-05-07 15:30 59.65551 17.91982 107 ft 77 kts 191°
2026-05-07 15:30 59.64833 17.91722 108 ft 130 kts 190°
2026-05-07 15:31 59.63825 17.91363 284 ft 153 kts 191°
2026-05-07 15:31 59.62780 17.90998 852 ft 152 kts 189°
2026-05-07 15:31 59.61742 17.90529 1428 ft 159 kts 204°
2026-05-07 15:31 59.60903 17.88891 1744 ft 186 kts 236°
2026-05-07 15:32 59.60189 17.86556 2107 ft 211 kts 237°
2026-05-07 15:32 59.59404 17.84013 2831 ft 220 kts 239°
2026-05-07 15:32 59.58602 17.81398 3728 ft 224 kts 241°
2026-05-07 15:32 59.57833 17.78603 4282 ft 247 kts 243°
2026-05-07 15:33 59.57035 17.75501 5084 ft 258 kts 244°
2026-05-07 15:33 59.56006 17.72560 6037 ft 264 kts 229°
2026-05-07 15:33 59.54750 17.69881 7015 ft 268 kts 228°
2026-05-07 15:33 59.53457 17.67211 7975 ft 270 kts 228°
2026-05-07 15:34 59.52148 17.64542 8945 ft 272 kts 229°
2026-05-07 15:34 59.50826 17.61856 9918 ft 274 kts 229°
2026-05-07 15:34 59.49473 17.59102 10507 ft 289 kts 229°
2026-05-07 15:34 59.48027 17.56152 10878 ft 308 kts 229°
2026-05-07 15:35 59.46521 17.53091 11581 ft 314 kts 229°
2026-05-07 15:35 59.44988 17.49983 12367 ft 318 kts 229°
2026-05-07 15:35 59.43443 17.46852 13144 ft 322 kts 230°
2026-05-07 15:35 59.41877 17.43678 13920 ft 325 kts 230°
2026-05-07 15:36 59.40293 17.40470 14607 ft 329 kts 230°
2026-05-07 15:36 59.38696 17.37241 15329 ft 331 kts 230°
2026-05-07 15:36 59.37090 17.33999 16054 ft 332 kts 230°
2026-05-07 15:36 59.35477 17.30742 16791 ft 334 kts 230°
2026-05-07 15:37 59.33856 17.27472 17522 ft 335 kts 230°
2026-05-07 15:37 59.32225 17.24187 18244 ft 337 kts 230°
2026-05-07 15:37 59.30583 17.20887 18839 ft 340 kts 230°
2026-05-07 15:37 59.28921 17.17551 19442 ft 344 kts 230°
2026-05-07 15:38 59.27242 17.14192 20073 ft 347 kts 230°
2026-05-07 15:38 59.25547 17.10812 20713 ft 349 kts 230°
2026-05-07 15:38 59.23838 17.07409 21336 ft 352 kts 230°
2026-05-07 15:38 59.22139 17.04028 21933 ft 355 kts 230°
2026-05-07 15:39 59.20371 17.00633 22532 ft 360 kts 225°
2026-05-07 15:39 59.18440 16.97481 23135 ft 363 kts 225°
2026-05-07 15:39 59.16490 16.94312 23727 ft 366 kts 225°
2026-05-07 15:39 59.14518 16.91114 24215 ft 369 kts 225°
2026-05-07 15:40 59.12539 16.87903 24697 ft 372 kts 225°
2026-05-07 15:40 59.10543 16.84665 25170 ft 375 kts 225°
2026-05-07 15:40 59.08532 16.81407 25630 ft 378 kts 225°
2026-05-07 15:40 59.06501 16.78124 26013 ft 382 kts 225°
2026-05-07 15:41 59.04449 16.74809 26434 ft 385 kts 225°
2026-05-07 15:41 59.02380 16.71468 26864 ft 388 kts 225°
2026-05-07 15:41 59.00292 16.68111 27292 ft 391 kts 225°
2026-05-07 15:41 58.98186 16.64736 27710 ft 394 kts 225°
2026-05-07 15:42 58.96065 16.61339 28123 ft 397 kts 225°
2026-05-07 15:42 58.93929 16.57922 28536 ft 400 kts 225°
2026-05-07 15:42 58.91774 16.54484 28940 ft 402 kts 225°
2026-05-07 15:42 58.89607 16.51030 29340 ft 405 kts 225°
2026-05-07 15:43 58.87425 16.47555 29749 ft 408 kts 225°
2026-05-07 15:43 58.85260 16.44103 30127 ft 410 kts 225°
2026-05-07 15:43 58.83049 16.40585 30434 ft 413 kts 224°
2026-05-07 15:43 58.80812 16.37042 30738 ft 417 kts 224°
2026-05-07 15:44 58.78562 16.33491 31067 ft 420 kts 224°
2026-05-07 15:44 58.76291 16.29920 31400 ft 422 kts 224°
2026-05-07 15:44 58.74013 16.26340 31732 ft 424 kts 224°
2026-05-07 15:44 58.71728 16.22747 32177 ft 424 kts 224°
2026-05-07 15:45 58.69447 16.19168 32655 ft 422 kts 224°
2026-05-07 15:45 58.67172 16.15605 33121 ft 421 kts 224°
2026-05-07 15:45 58.64901 16.12055 33597 ft 421 kts 224°
2026-05-07 15:45 58.62628 16.08511 33999 ft 421 kts 224°
2026-05-07 15:46 58.58142 16.01523 34076 ft 409 kts 224°
2026-05-07 15:46 58.55938 15.98104 34085 ft 407 kts 224°
2026-05-07 15:47 58.51532 15.91274 34082 ft 407 kts 224°
2026-05-07 15:47 58.47876 15.85623 34083 ft 407 kts 224°
2026-05-07 15:48 58.42756 15.77739 34085 ft 407 kts 224°
2026-05-07 15:48 58.38344 15.70965 34088 ft 407 kts 224°
2026-05-07 15:49 58.34662 15.65336 34049 ft 408 kts 223°
2026-05-07 15:49 58.30212 15.58561 34056 ft 410 kts 223°
2026-05-07 15:50 58.25744 15.51771 34066 ft 412 kts 223°
2026-05-07 15:50 58.21261 15.44976 34074 ft 412 kts 223°
2026-05-07 15:51 58.16769 15.38182 34076 ft 413 kts 223°
2026-05-07 15:51 58.12269 15.31417 34087 ft 413 kts 223°
2026-05-07 15:52 58.07760 15.24661 34070 ft 414 kts 223°
2026-05-07 15:52 58.03270 15.17940 34071 ft 415 kts 223°
2026-05-07 15:53 57.98731 15.11158 34081 ft 416 kts 223°
2026-05-07 15:53 57.94179 15.04403 34096 ft 417 kts 223°
2026-05-07 15:54 57.89616 14.97661 34096 ft 417 kts 222°
2026-05-07 15:54 57.85047 14.90936 34096 ft 417 kts 222°
2026-05-07 15:55 57.80477 14.84227 34099 ft 417 kts 222°
2026-05-07 15:55 57.76115 14.77824 34097 ft 417 kts 222°
2026-05-07 15:56 57.71573 14.71181 34094 ft 417 kts 222°
2026-05-07 15:56 57.66996 14.64522 34097 ft 417 kts 222°
2026-05-07 15:57 57.62418 14.57881 34082 ft 416 kts 222°
2026-05-07 15:57 57.57832 14.51243 34078 ft 417 kts 222°
2026-05-07 15:58 57.53232 14.44616 34069 ft 418 kts 221°
2026-05-07 15:58 57.48620 14.37991 34070 ft 418 kts 221°
2026-05-07 15:59 57.44039 14.31429 34069 ft 419 kts 221°
2026-05-07 15:59 57.39418 14.24828 34066 ft 419 kts 221°
2026-05-07 16:00 57.34791 14.18234 34040 ft 420 kts 221°
2026-05-07 16:00 57.30149 14.11648 34042 ft 421 kts 221°
2026-05-07 16:01 57.25510 14.05112 33717 ft 415 kts 221°
2026-05-07 16:01 57.23224 14.01906 33265 ft 411 kts 220°
2026-05-07 16:01 57.20990 13.98766 32818 ft 407 kts 220°
2026-05-07 16:01 57.18748 13.95615 32378 ft 403 kts 220°
2026-05-07 16:02 57.16526 13.92492 31948 ft 400 kts 220°
2026-05-07 16:02 57.14322 13.89396 31500 ft 397 kts 220°
2026-05-07 16:02 57.12127 13.86317 31038 ft 396 kts 219°
2026-05-07 16:02 57.09939 13.83258 30623 ft 394 kts 219°
2026-05-07 16:03 57.07767 13.80226 30253 ft 391 kts 219°
2026-05-07 16:03 57.05608 13.77213 29821 ft 388 kts 219°
2026-05-07 16:03 57.03462 13.74226 29401 ft 385 kts 219°
2026-05-07 16:03 57.01331 13.71268 29000 ft 383 kts 219°
2026-05-07 16:04 56.99209 13.68331 28611 ft 380 kts 219°
2026-05-07 16:04 56.97108 13.65424 28245 ft 377 kts 219°
2026-05-07 16:04 56.95020 13.62540 27886 ft 374 kts 219°
2026-05-07 16:04 56.92948 13.59687 27538 ft 371 kts 219°
2026-05-07 16:05 56.90919 13.56897 27165 ft 368 kts 219°
2026-05-07 16:05 56.88875 13.54084 26761 ft 367 kts 219°
2026-05-07 16:05 56.86844 13.51292 26375 ft 365 kts 219°
2026-05-07 16:05 56.84818 13.48512 26002 ft 362 kts 219°
2026-05-07 16:06 56.82809 13.45762 25616 ft 360 kts 219°
2026-05-07 16:06 56.80811 13.43027 25253 ft 357 kts 219°
2026-05-07 16:06 56.78831 13.40319 24885 ft 354 kts 219°
2026-05-07 16:06 56.76865 13.37632 24508 ft 352 kts 219°
2026-05-07 16:07 56.74913 13.34966 24136 ft 349 kts 219°
2026-05-07 16:07 56.72973 13.32320 23757 ft 347 kts 219°
2026-05-07 16:07 56.71047 13.29693 23348 ft 345 kts 219°
2026-05-07 16:07 56.69155 13.27118 22899 ft 342 kts 219°
2026-05-07 16:08 56.67252 13.24532 22470 ft 340 kts 219°
2026-05-07 16:08 56.65337 13.21935 22036 ft 338 kts 219°
2026-05-07 16:08 56.63486 13.19420 21632 ft 336 kts 219°
2026-05-07 16:08 56.61598 13.16854 21226 ft 333 kts 219°
2026-05-07 16:09 56.59745 13.14342 20823 ft 331 kts 219°
2026-05-07 16:09 56.57901 13.11850 20446 ft 330 kts 218°
2026-05-07 16:09 56.56066 13.09377 20067 ft 328 kts 218°
2026-05-07 16:09 56.54264 13.06957 19685 ft 326 kts 219°
2026-05-07 16:10 56.52451 13.04524 19321 ft 323 kts 218°
2026-05-07 16:10 56.50647 13.02104 18943 ft 322 kts 218°
2026-05-07 16:10 56.48852 12.99697 18557 ft 320 kts 218°
2026-05-07 16:10 56.47063 12.97305 18164 ft 318 kts 218°
2026-05-07 16:11 56.45285 12.94936 17747 ft 317 kts 218°
2026-05-07 16:11 56.43518 12.92587 17343 ft 314 kts 218°
2026-05-07 16:11 56.41762 12.90251 16940 ft 313 kts 218°
2026-05-07 16:11 56.40015 12.87925 16537 ft 312 kts 218°
2026-05-07 16:12 56.38269 12.85603 16153 ft 310 kts 218°
2026-05-07 16:12 56.36538 12.83304 15784 ft 308 kts 218°
2026-05-07 16:12 56.34818 12.81019 15433 ft 306 kts 218°
2026-05-07 16:12 56.33105 12.78753 15067 ft 305 kts 218°
2026-05-07 16:13 56.31398 12.76499 14707 ft 304 kts 218°
2026-05-07 16:13 56.29693 12.74251 14331 ft 303 kts 218°
2026-05-07 16:13 56.27997 12.72014 13987 ft 302 kts 218°
2026-05-07 16:13 56.26308 12.69788 13615 ft 300 kts 218°
2026-05-07 16:14 56.24625 12.67569 13234 ft 299 kts 217°
2026-05-07 16:14 56.22970 12.65391 12812 ft 299 kts 217°
2026-05-07 16:14 56.21286 12.63171 12329 ft 301 kts 217°
2026-05-07 16:14 56.19585 12.60928 11822 ft 304 kts 217°
2026-05-07 16:15 56.17796 12.58870 11299 ft 308 kts 206°
2026-05-07 16:15 56.15762 12.57666 10801 ft 311 kts 190°
2026-05-07 16:15 56.13601 12.57409 10313 ft 313 kts 179°
2026-05-07 16:15 56.11431 12.57441 9929 ft 310 kts 178°
2026-05-07 16:16 56.09304 12.57463 9784 ft 300 kts 179°
2026-05-07 16:16 56.07247 12.57481 9593 ft 291 kts 179°
2026-05-07 16:16 56.05230 12.57498 9262 ft 289 kts 179°
2026-05-07 16:16 56.03224 12.57518 8903 ft 288 kts 179°
2026-05-07 16:17 56.01219 12.57539 8574 ft 286 kts 179°
2026-05-07 16:17 55.99234 12.57561 8279 ft 284 kts 179°
2026-05-07 16:17 55.97270 12.57579 8082 ft 282 kts 179°
2026-05-07 16:17 55.95309 12.57597 7878 ft 281 kts 179°
2026-05-07 16:18 55.93378 12.57614 7678 ft 279 kts 179°
2026-05-07 16:18 55.91433 12.57630 7477 ft 281 kts 179°
2026-05-07 16:18 55.89480 12.57650 7275 ft 280 kts 179°
2026-05-07 16:18 55.87520 12.57552 7076 ft 278 kts 187°
2026-05-07 16:19 55.85644 12.56727 6877 ft 277 kts 200°
2026-05-07 16:19 55.83843 12.55541 6677 ft 275 kts 200°
2026-05-07 16:19 55.82063 12.54381 6477 ft 274 kts 200°
2026-05-07 16:19 55.80273 12.53223 6267 ft 274 kts 200°
2026-05-07 16:20 55.78482 12.52068 6057 ft 273 kts 201°
2026-05-07 16:20 55.76691 12.50911 5848 ft 274 kts 201°
2026-05-07 16:20 55.74902 12.49754 5639 ft 273 kts 201°
2026-05-07 16:20 55.73120 12.48604 5432 ft 272 kts 201°
2026-05-07 16:21 55.71336 12.47454 5220 ft 272 kts 201°
2026-05-07 16:21 55.69566 12.46311 5022 ft 271 kts 201°
2026-05-07 16:21 55.67821 12.45176 4817 ft 270 kts 201°
2026-05-07 16:21 55.66053 12.44030 4605 ft 271 kts 201°
2026-05-07 16:22 55.64284 12.42857 4394 ft 271 kts 201°
2026-05-07 16:22 55.62520 12.41684 4185 ft 269 kts 201°
2026-05-07 16:22 55.60788 12.40534 3970 ft 264 kts 201°
2026-05-07 16:22 55.59083 12.39401 3768 ft 258 kts 201°
2026-05-07 16:23 55.57418 12.38298 3566 ft 253 kts 201°
2026-05-07 16:23 55.55790 12.37218 3357 ft 247 kts 201°
2026-05-07 16:23 55.54203 12.36168 3137 ft 241 kts 201°
2026-05-07 16:23 55.52615 12.35403 2940 ft 234 kts 180°
2026-05-07 16:24 55.51050 12.35758 2861 ft 221 kts 167°
2026-05-07 16:24 55.49582 12.36390 2781 ft 215 kts 160°
2026-05-07 16:24 55.48376 12.37854 2707 ft 211 kts 125°
2026-05-07 16:24 55.47816 12.40179 2616 ft 206 kts 92°
2026-05-07 16:25 55.48032 12.42620 2534 ft 202 kts 61°
2026-05-07 16:25 55.48905 12.44496 2496 ft 197 kts 39°
2026-05-07 16:25 55.49911 12.46030 2426 ft 187 kts 39°
2026-05-07 16:25 55.50876 12.47511 2257 ft 182 kts 39°
2026-05-07 16:26 55.51822 12.48963 1998 ft 179 kts 39°
2026-05-07 16:26 55.52741 12.50374 1758 ft 170 kts 39°
2026-05-07 16:26 55.53609 12.51710 1531 ft 163 kts 40°
2026-05-07 16:26 55.54170 12.52573 1386 ft 158 kts 40°
2026-05-07 16:27 55.55226 12.54199 1102 ft 144 kts 40°
2026-05-07 16:27 55.55974 12.55348 904 ft 141 kts 39°
2026-05-07 16:27 55.56703 12.56469 720 ft 137 kts 39°
2026-05-07 16:27 55.57411 12.57558 535 ft 134 kts 38°
2026-05-07 16:28 55.58115 12.58639 363 ft 134 kts 38°
2026-05-07 16:28 55.58818 12.59723 170 ft 133 kts 38°
2026-05-07 16:28 55.59507 12.60789 28 ft 124 kts 39°
2026-05-07 16:28 55.60049 12.61626 25 ft 82 kts 41°
2026-05-07 16:29 55.60416 12.62196 24 ft 59 kts 41°
2026-05-07 16:29 55.60679 12.62605 29 ft 44 kts 41°
2026-05-07 16:29 55.60903 12.62950 25 ft 43 kts 41°
2026-05-07 16:29 55.61127 12.63298 27 ft 43 kts 41°
2026-05-07 16:30 55.61355 12.63651 28 ft 44 kts 41°
2026-05-07 16:30 55.61546 12.63948 28 ft 33 kts 41°
2026-05-07 16:30 55.61678 12.64092 28 ft 18 kts
2026-05-07 16:30 55.61819 12.64074 26 ft 22 kts 355°
2026-05-07 16:31 55.61937 12.64125 25 ft 19 kts 24°
2026-05-07 16:31 55.62065 12.64231 24 ft 22 kts 25°
2026-05-07 16:31 55.62196 12.64340 22 ft 18 kts 25°
2026-05-07 16:31 55.62325 12.64416 23 ft 18 kts 14°
2026-05-07 16:32 55.62435 12.64471 24 ft 11 kts 19°
2026-05-07 16:32 55.62465 12.64558 24 ft 8 kts 103°
2026-05-07 16:32 55.62464 12.64630 24 ft 6 kts 63°
2026-05-07 16:32 55.62506 12.64658 24 ft 7 kts
2026-05-07 16:33 55.62564 12.64652 24 ft 9 kts 359°
2026-05-07 16:33 55.62602 12.64653 24 ft 5 kts
2026-05-07 16:33 55.62636 12.64644 26 ft 5 kts 322°
2026-05-07 16:33 55.62645 12.64586 24 ft 5 kts 281°
2026-05-07 16:34 55.62648 12.64562 24 ft 1 kts 281°
2026-05-07 16:34 55.62648 12.64561 24 ft 0 kts 281°